Location: Errabaliem
(16.8108°N, 80.4255°E)
Time: 15:43:31
(UTC+00:00)

Cosmos 1378 Rocket - Pass Details

Date: 05 August 2024
Orbit: 597 x 623 km, 82.5° (Epoch: 11 September)

Event Time Altitude Azimuth Distance (km) Brightness Sun altitude
Rises 23:10:16 0° 358° (N) 2,832 7.2 -16.4°
Reaches altitude 10° 23:12:29 10° 1° (N) 1,928 6.4 -15.9°
Maximum altitude 23:16:43 71° 85° (E) 629 3.7 -15.0°
Drops below altitude 10° 23:20:58 10° 170° (S) 1,928 6.0 -14.1°
Sets 23:23:11 0° 172° (S) 2,832 6.8 -13.6°
